<?xml version="1.0" encoding="UTF-8" standalone="no" ?>
<gpx xmlns="http://www.topografix.com/GPX/1/1" xmlns:xsi="http://www.w3.org/2001/XMLSchema-instance" xsi:schemaLocation="http://www.topografix.com/GPX/1/1 http://www.topografix.com/GPX/1/1/gpx.xsd" version="1.1" creator="VisuGPX - https://www.visugpx.com">
  <metadata>
    <name>Autour d\'Echalas</name>
    <desc><![CDATA[A 25 km de Lyon, y a personne, que demander de plus...]]></desc>
  </metadata>
  <trk>
    <name><![CDATA[Sequence 1]]></name>
    <trkseg>
      <trkpt lat="45.55405" lon="4.71752">
        <ele>350</ele>
        <time>2015-05-27T12:14:57Z</time>
      </trkpt>
      <trkpt lat="45.55412" lon="4.71755">
        <ele>358</ele>
        <time>2015-05-27T12:15:02Z</time>
      </trkpt>
      <trkpt lat="45.55409" lon="4.7176">
        <ele>359</ele>
        <time>2015-05-27T12:15:04Z</time>
      </trkpt>
      <trkpt lat="45.55413" lon="4.71787">
        <ele>358</ele>
        <time>2015-05-27T12:15:10Z</time>
      </trkpt>
      <trkpt lat="45.55422" lon="4.71805">
        <ele>360</ele>
        <time>2015-05-27T12:15:14Z</time>
      </trkpt>
      <trkpt lat="45.55432" lon="4.71828">
        <ele>358</ele>
        <time>2015-05-27T12:15:18Z</time>
      </trkpt>
      <trkpt lat="45.55445" lon="4.71851">
        <ele>358</ele>
        <time>2015-05-27T12:15:23Z</time>
      </trkpt>
      <trkpt lat="45.55465" lon="4.71892">
        <ele>359</ele>
        <time>2015-05-27T12:15:30Z</time>
      </trkpt>
      <trkpt lat="45.55479" lon="4.71921">
        <ele>358</ele>
        <time>2015-05-27T12:15:34Z</time>
      </trkpt>
      <trkpt lat="45.55501" lon="4.71975">
        <ele>357</ele>
        <time>2015-05-27T12:15:40Z</time>
      </trkpt>
      <trkpt lat="45.55509" lon="4.72008">
        <ele>357</ele>
        <time>2015-05-27T12:15:43Z</time>
      </trkpt>
      <trkpt lat="45.55524" lon="4.72073">
        <ele>353</ele>
        <time>2015-05-27T12:15:48Z</time>
      </trkpt>
      <trkpt lat="45.55539" lon="4.72132">
        <ele>352</ele>
        <time>2015-05-27T12:15:53Z</time>
      </trkpt>
      <trkpt lat="45.55592" lon="4.72175">
        <ele>348</ele>
        <time>2015-05-27T12:16:00Z</time>
      </trkpt>
      <trkpt lat="45.55608" lon="4.72193">
        <ele>347</ele>
        <time>2015-05-27T12:16:03Z</time>
      </trkpt>
      <trkpt lat="45.55634" lon="4.72213">
        <ele>344</ele>
        <time>2015-05-27T12:16:08Z</time>
      </trkpt>
      <trkpt lat="45.55682" lon="4.72217">
        <ele>339</ele>
        <time>2015-05-27T12:16:14Z</time>
      </trkpt>
      <trkpt lat="45.55712" lon="4.72225">
        <ele>336</ele>
        <time>2015-05-27T12:16:18Z</time>
      </trkpt>
      <trkpt lat="45.55747" lon="4.72239">
        <ele>335</ele>
        <time>2015-05-27T12:16:23Z</time>
      </trkpt>
      <trkpt lat="45.55776" lon="4.72246">
        <ele>333</ele>
        <time>2015-05-27T12:16:28Z</time>
      </trkpt>
      <trkpt lat="45.55809" lon="4.72255">
        <ele>332</ele>
        <time>2015-05-27T12:16:35Z</time>
      </trkpt>
      <trkpt lat="45.5582" lon="4.72259">
        <ele>331</ele>
        <time>2015-05-27T12:16:38Z</time>
      </trkpt>
      <trkpt lat="45.55843" lon="4.72267">
        <ele>329</ele>
        <time>2015-05-27T12:16:43Z</time>
      </trkpt>
      <trkpt lat="45.55865" lon="4.72276">
        <ele>328</ele>
        <time>2015-05-27T12:16:48Z</time>
      </trkpt>
      <trkpt lat="45.55886" lon="4.7229">
        <ele>327</ele>
        <time>2015-05-27T12:16:53Z</time>
      </trkpt>
      <trkpt lat="45.55903" lon="4.72308">
        <ele>328</ele>
        <time>2015-05-27T12:16:58Z</time>
      </trkpt>
      <trkpt lat="45.55925" lon="4.72329">
        <ele>326</ele>
        <time>2015-05-27T12:17:03Z</time>
      </trkpt>
      <trkpt lat="45.55947" lon="4.72353">
        <ele>326</ele>
        <time>2015-05-27T12:17:08Z</time>
      </trkpt>
      <trkpt lat="45.55969" lon="4.72375">
        <ele>324</ele>
        <time>2015-05-27T12:17:13Z</time>
      </trkpt>
      <trkpt lat="45.5599" lon="4.72394">
        <ele>323</ele>
        <time>2015-05-27T12:17:18Z</time>
      </trkpt>
      <trkpt lat="45.56008" lon="4.72409">
        <ele>324</ele>
        <time>2015-05-27T12:17:23Z</time>
      </trkpt>
      <trkpt lat="45.56024" lon="4.72422">
        <ele>323</ele>
        <time>2015-05-27T12:17:28Z</time>
      </trkpt>
      <trkpt lat="45.5604" lon="4.72435">
        <ele>322</ele>
        <time>2015-05-27T12:17:33Z</time>
      </trkpt>
      <trkpt lat="45.56055" lon="4.72444">
        <ele>321</ele>
        <time>2015-05-27T12:17:38Z</time>
      </trkpt>
      <trkpt lat="45.56071" lon="4.72453">
        <ele>320</ele>
        <time>2015-05-27T12:17:43Z</time>
      </trkpt>
      <trkpt lat="45.56088" lon="4.72466">
        <ele>322</ele>
        <time>2015-05-27T12:17:48Z</time>
      </trkpt>
      <trkpt lat="45.56109" lon="4.72477">
        <ele>321</ele>
        <time>2015-05-27T12:17:53Z</time>
      </trkpt>
      <trkpt lat="45.56137" lon="4.7248">
        <ele>319</ele>
        <time>2015-05-27T12:17:58Z</time>
      </trkpt>
      <trkpt lat="45.56166" lon="4.72477">
        <ele>318</ele>
        <time>2015-05-27T12:18:03Z</time>
      </trkpt>
      <trkpt lat="45.56189" lon="4.72482">
        <ele>319</ele>
        <time>2015-05-27T12:18:09Z</time>
      </trkpt>
      <trkpt lat="45.56192" lon="4.72489">
        <ele>318</ele>
        <time>2015-05-27T12:18:13Z</time>
      </trkpt>
      <trkpt lat="45.56194" lon="4.72495">
        <ele>318</ele>
        <time>2015-05-27T12:18:18Z</time>
      </trkpt>
      <trkpt lat="45.5619" lon="4.72508">
        <ele>317</ele>
        <time>2015-05-27T12:18:23Z</time>
      </trkpt>
      <trkpt lat="45.56188" lon="4.72522">
        <ele>316</ele>
        <time>2015-05-27T12:18:28Z</time>
      </trkpt>
      <trkpt lat="45.56188" lon="4.72537">
        <ele>316</ele>
        <time>2015-05-27T12:18:33Z</time>
      </trkpt>
      <trkpt lat="45.56194" lon="4.72568">
        <ele>308</ele>
        <time>2015-05-27T12:18:41Z</time>
      </trkpt>
      <trkpt lat="45.56194" lon="4.72574">
        <ele>308</ele>
        <time>2015-05-27T12:18:43Z</time>
      </trkpt>
      <trkpt lat="45.56194" lon="4.72586">
        <ele>305</ele>
        <time>2015-05-27T12:18:48Z</time>
      </trkpt>
      <trkpt lat="45.56191" lon="4.72597">
        <ele>306</ele>
        <time>2015-05-27T12:18:54Z</time>
      </trkpt>
      <trkpt lat="45.56189" lon="4.72605">
        <ele>308</ele>
        <time>2015-05-27T12:18:58Z</time>
      </trkpt>
      <trkpt lat="45.56184" lon="4.72619">
        <ele>306</ele>
        <time>2015-05-27T12:19:03Z</time>
      </trkpt>
      <trkpt lat="45.56178" lon="4.72645">
        <ele>304</ele>
        <time>2015-05-27T12:19:08Z</time>
      </trkpt>
      <trkpt lat="45.56169" lon="4.72664">
        <ele>303</ele>
        <time>2015-05-27T12:19:14Z</time>
      </trkpt>
      <trkpt lat="45.56165" lon="4.72679">
        <ele>297</ele>
        <time>2015-05-27T12:19:18Z</time>
      </trkpt>
      <trkpt lat="45.56158" lon="4.72701">
        <ele>299</ele>
        <time>2015-05-27T12:19:23Z</time>
      </trkpt>
      <trkpt lat="45.56146" lon="4.72722">
        <ele>288</ele>
        <time>2015-05-27T12:19:29Z</time>
      </trkpt>
      <trkpt lat="45.56137" lon="4.72745">
        <ele>293</ele>
        <time>2015-05-27T12:19:37Z</time>
      </trkpt>
      <trkpt lat="45.56139" lon="4.72748">
        <ele>294</ele>
        <time>2015-05-27T12:19:38Z</time>
      </trkpt>
      <trkpt lat="45.56119" lon="4.72799">
        <ele>287</ele>
        <time>2015-05-27T12:19:47Z</time>
      </trkpt>
      <trkpt lat="45.56115" lon="4.72806">
        <ele>286</ele>
        <time>2015-05-27T12:19:48Z</time>
      </trkpt>
      <trkpt lat="45.56089" lon="4.72839">
        <ele>286</ele>
        <time>2015-05-27T12:19:56Z</time>
      </trkpt>
      <trkpt lat="45.56094" lon="4.72843">
        <ele>284</ele>
        <time>2015-05-27T12:19:59Z</time>
      </trkpt>
      <trkpt lat="45.56097" lon="4.7285">
        <ele>284</ele>
        <time>2015-05-27T12:20:04Z</time>
      </trkpt>
      <trkpt lat="45.56099" lon="4.72851">
        <ele>285</ele>
        <time>2015-05-27T12:20:09Z</time>
      </trkpt>
      <trkpt lat="45.56098" lon="4.72852">
        <ele>284</ele>
        <time>2015-05-27T12:20:11Z</time>
      </trkpt>
      <trkpt lat="45.561" lon="4.72853">
        <ele>285</ele>
        <time>2015-05-27T12:20:16Z</time>
      </trkpt>
      <trkpt lat="45.56098" lon="4.72856">
        <ele>284</ele>
        <time>2015-05-27T12:20:21Z</time>
      </trkpt>
      <trkpt lat="45.56095" lon="4.72857">
        <ele>282</ele>
        <time>2015-05-27T12:20:26Z</time>
      </trkpt>
      <trkpt lat="45.56095" lon="4.72857">
        <ele>282</ele>
        <time>2015-05-27T12:20:31Z</time>
      </trkpt>
      <trkpt lat="45.56095" lon="4.72857">
        <ele>282</ele>
        <time>2015-05-27T12:20:34Z</time>
      </trkpt>
      <trkpt lat="45.56095" lon="4.72857">
        <ele>282</ele>
        <time>2015-05-27T12:20:37Z</time>
      </trkpt>
      <trkpt lat="45.56095" lon="4.72857">
        <ele>282</ele>
        <time>2015-05-27T12:20:40Z</time>
      </trkpt>
      <trkpt lat="45.56095" lon="4.72857">
        <ele>282</ele>
        <time>2015-05-27T12:20:43Z</time>
      </trkpt>
      <trkpt lat="45.56095" lon="4.72857">
        <ele>282</ele>
        <time>2015-05-27T12:20:48Z</time>
      </trkpt>
      <trkpt lat="45.56095" lon="4.72857">
        <ele>282</ele>
        <time>2015-05-27T12:20:50Z</time>
      </trkpt>
      <trkpt lat="45.56095" lon="4.72857">
        <ele>282</ele>
        <time>2015-05-27T12:20:52Z</time>
      </trkpt>
      <trkpt lat="45.56094" lon="4.72856">
        <ele>282</ele>
        <time>2015-05-27T12:20:57Z</time>
      </trkpt>
      <trkpt lat="45.56094" lon="4.72856">
        <ele>283</ele>
        <time>2015-05-27T12:20:58Z</time>
      </trkpt>
      <trkpt lat="45.56095" lon="4.72855">
        <ele>284</ele>
        <time>2015-05-27T12:21:03Z</time>
      </trkpt>
      <trkpt lat="45.56093" lon="4.72854">
        <ele>288</ele>
        <time>2015-05-27T12:21:08Z</time>
      </trkpt>
      <trkpt lat="45.5609" lon="4.72855">
        <ele>290</ele>
        <time>2015-05-27T12:21:11Z</time>
      </trkpt>
      <trkpt lat="45.56083" lon="4.7286">
        <ele>290</ele>
        <time>2015-05-27T12:21:16Z</time>
      </trkpt>
      <trkpt lat="45.56077" lon="4.72871">
        <ele>283</ele>
        <time>2015-05-27T12:21:23Z</time>
      </trkpt>
      <trkpt lat="45.56076" lon="4.72877">
        <ele>282</ele>
        <time>2015-05-27T12:21:29Z</time>
      </trkpt>
      <trkpt lat="45.56077" lon="4.72878">
        <ele>284</ele>
        <time>2015-05-27T12:21:31Z</time>
      </trkpt>
      <trkpt lat="45.56081" lon="4.72879">
        <ele>282</ele>
        <time>2015-05-27T12:21:36Z</time>
      </trkpt>
      <trkpt lat="45.56083" lon="4.72879">
        <ele>282</ele>
        <time>2015-05-27T12:21:39Z</time>
      </trkpt>
      <trkpt lat="45.56089" lon="4.7288">
        <ele>284</ele>
        <time>2015-05-27T12:21:44Z</time>
      </trkpt>
      <trkpt lat="45.56094" lon="4.72878">
        <ele>289</ele>
        <time>2015-05-27T12:21:49Z</time>
      </trkpt>
      <trkpt lat="45.56101" lon="4.72877">
        <ele>288</ele>
        <time>2015-05-27T12:21:54Z</time>
      </trkpt>
      <trkpt lat="45.5611" lon="4.72874">
        <ele>285</ele>
        <time>2015-05-27T12:22:00Z</time>
      </trkpt>
      <trkpt lat="45.5611" lon="4.72873">
        <ele>283</ele>
        <time>2015-05-27T12:22:04Z</time>
      </trkpt>
      <trkpt lat="45.56111" lon="4.72872">
        <ele>284</ele>
        <time>2015-05-27T12:22:07Z</time>
      </trkpt>
      <trkpt lat="45.56112" lon="4.72873">
        <ele>283</ele>
        <time>2015-05-27T12:22:10Z</time>
      </trkpt>
      <trkpt lat="45.56113" lon="4.72873">
        <ele>280</ele>
        <time>2015-05-27T12:22:13Z</time>
      </trkpt>
      <trkpt lat="45.56116" lon="4.72872">
        <ele>281</ele>
        <time>2015-05-27T12:22:18Z</time>
      </trkpt>
      <trkpt lat="45.5612" lon="4.72872">
        <ele>279</ele>
        <time>2015-05-27T12:22:23Z</time>
      </trkpt>
      <trkpt lat="45.56125" lon="4.72872">
        <ele>276</ele>
        <time>2015-05-27T12:22:31Z</time>
      </trkpt>
      <trkpt lat="45.56128" lon="4.72871">
        <ele>276</ele>
        <time>2015-05-27T12:22:35Z</time>
      </trkpt>
      <trkpt lat="45.56129" lon="4.7287">
        <ele>275</ele>
        <time>2015-05-27T12:22:39Z</time>
      </trkpt>
      <trkpt lat="45.56131" lon="4.72871">
        <ele>273</ele>
        <time>2015-05-27T12:22:43Z</time>
      </trkpt>
      <trkpt lat="45.56132" lon="4.72871">
        <ele>272</ele>
        <time>2015-05-27T12:22:46Z</time>
      </trkpt>
      <trkpt lat="45.56134" lon="4.72874">
        <ele>272</ele>
        <time>2015-05-27T12:22:51Z</time>
      </trkpt>
      <trkpt lat="45.56134" lon="4.72875">
        <ele>272</ele>
        <time>2015-05-27T12:22:55Z</time>
      </trkpt>
      <trkpt lat="45.56134" lon="4.72875">
        <ele>272</ele>
        <time>2015-05-27T12:22:57Z</time>
      </trkpt>
      <trkpt lat="45.56134" lon="4.72875">
        <ele>272</ele>
        <time>2015-05-27T12:23:02Z</time>
      </trkpt>
      <trkpt lat="45.56134" lon="4.72875">
        <ele>272</ele>
        <time>2015-05-27T12:23:05Z</time>
      </trkpt>
      <trkpt lat="45.56134" lon="4.72875">
        <ele>272</ele>
        <time>2015-05-27T12:23:08Z</time>
      </trkpt>
      <trkpt lat="45.56134" lon="4.72875">
        <ele>272</ele>
        <time>2015-05-27T12:23:09Z</time>
      </trkpt>
      <trkpt lat="45.56134" lon="4.72875">
        <ele>272</ele>
        <time>2015-05-27T12:23:12Z</time>
      </trkpt>
      <trkpt lat="45.56134" lon="4.72875">
        <ele>272</ele>
        <time>2015-05-27T12:23:15Z</time>
      </trkpt>
      <trkpt lat="45.56134" lon="4.72875">
        <ele>272</ele>
        <time>2015-05-27T12:23:18Z</time>
      </trkpt>
      <trkpt lat="45.56134" lon="4.72875">
        <ele>272</ele>
        <time>2015-05-27T12:23:21Z</time>
      </trkpt>
      <trkpt lat="45.56134" lon="4.72875">
        <ele>272</ele>
        <time>2015-05-27T12:23:24Z</time>
      </trkpt>
      <trkpt lat="45.56134" lon="4.72875">
        <ele>272</ele>
        <time>2015-05-27T12:23:27Z</time>
      </trkpt>
      <trkpt lat="45.56135" lon="4.72876">
        <ele>272</ele>
        <time>2015-05-27T12:23:31Z</time>
      </trkpt>
      <trkpt lat="45.56141" lon="4.72885">
        <ele>273</ele>
        <time>2015-05-27T12:23:37Z</time>
      </trkpt>
      <trkpt lat="45.56142" lon="4.72887">
        <ele>273</ele>
        <time>2015-05-27T12:23:38Z</time>
      </trkpt>
      <trkpt lat="45.56145" lon="4.72892">
        <ele>280</ele>
        <time>2015-05-27T12:23:43Z</time>
      </trkpt>
      <trkpt lat="45.56149" lon="4.72894">
        <ele>291</ele>
        <time>2015-05-27T12:23:49Z</time>
      </trkpt>
      <trkpt lat="45.56151" lon="4.72894">
        <ele>293</ele>
        <time>2015-05-27T12:23:53Z</time>
      </trkpt>
      <trkpt lat="45.56162" lon="4.72893">
        <ele>291</ele>
        <time>2015-05-27T12:24:02Z</time>
      </trkpt>
      <trkpt lat="45.56167" lon="4.72887">
        <ele>294</ele>
        <time>2015-05-27T12:24:07Z</time>
      </trkpt>
      <trkpt lat="45.56168" lon="4.72885">
        <ele>293</ele>
        <time>2015-05-27T12:24:08Z</time>
      </trkpt>
      <trkpt lat="45.56172" lon="4.7288">
        <ele>293</ele>
        <time>2015-05-27T12:24:13Z</time>
      </trkpt>
      <trkpt lat="45.56175" lon="4.72879">
        <ele>292</ele>
        <time>2015-05-27T12:24:18Z</time>
      </trkpt>
      <trkpt lat="45.56177" lon="4.72876">
        <ele>290</ele>
        <time>2015-05-27T12:24:23Z</time>
      </trkpt>
      <trkpt lat="45.56182" lon="4.7287">
        <ele>291</ele>
        <time>2015-05-27T12:24:32Z</time>
      </trkpt>
      <trkpt lat="45.56183" lon="4.72871">
        <ele>290</ele>
        <time>2015-05-27T12:24:33Z</time>
      </trkpt>
      <trkpt lat="45.56186" lon="4.72865">
        <ele>291</ele>
        <time>2015-05-27T12:24:42Z</time>
      </trkpt>
      <trkpt lat="45.56186" lon="4.72865">
        <ele>292</ele>
        <time>2015-05-27T12:24:43Z</time>
      </trkpt>
      <trkpt lat="45.56188" lon="4.72863">
        <ele>292</ele>
        <time>2015-05-27T12:24:46Z</time>
      </trkpt>
      <trkpt lat="45.56192" lon="4.72859">
        <ele>296</ele>
        <time>2015-05-27T12:24:51Z</time>
      </trkpt>
      <trkpt lat="45.56197" lon="4.72856">
        <ele>297</ele>
        <time>2015-05-27T12:24:56Z</time>
      </trkpt>
      <trkpt lat="45.56203" lon="4.72853">
        <ele>299</ele>
        <time>2015-05-27T12:25:01Z</time>
      </trkpt>
      <trkpt lat="45.56208" lon="4.72852">
        <ele>300</ele>
        <time>2015-05-27T12:25:06Z</time>
      </trkpt>
      <trkpt lat="45.56214" lon="4.7285">
        <ele>303</ele>
        <time>2015-05-27T12:25:11Z</time>
      </trkpt>
      <trkpt lat="45.56221" lon="4.7285">
        <ele>304</ele>
        <time>2015-05-27T12:25:16Z</time>
      </trkpt>
      <trkpt lat="45.56227" lon="4.7285">
        <ele>305</ele>
        <time>2015-05-27T12:25:21Z</time>
      </trkpt>
      <trkpt lat="45.56234" lon="4.72854">
        <ele>305</ele>
        <time>2015-05-27T12:25:28Z</time>
      </trkpt>
      <trkpt lat="45.56237" lon="4.72856">
        <ele>305</ele>
        <time>2015-05-27T12:25:31Z</time>
      </trkpt>
      <trkpt lat="45.56245" lon="4.72861">
        <ele>303</ele>
        <time>2015-05-27T12:25:38Z</time>
      </trkpt>
      <trkpt lat="45.56246" lon="4.72862">
        <ele>305</ele>
        <time>2015-05-27T12:25:41Z</time>
      </trkpt>
      <trkpt lat="45.56252" lon="4.72865">
        <ele>304</ele>
        <time>2015-05-27T12:25:46Z</time>
      </trkpt>
      <trkpt lat="45.56257" lon="4.72868">
        <ele>305</ele>
        <time>2015-05-27T12:25:51Z</time>
      </trkpt>
      <trkpt lat="45.5626" lon="4.72872">
        <ele>306</ele>
        <time>2015-05-27T12:25:56Z</time>
      </trkpt>
      <trkpt lat="45.56265" lon="4.72876">
        <ele>306</ele>
        <time>2015-05-27T12:26:01Z</time>
      </trkpt>
      <trkpt lat="45.56269" lon="4.72881">
        <ele>308</ele>
        <time>2015-05-27T12:26:06Z</time>
      </trkpt>
      <trkpt lat="45.5627" lon="4.72882">
        <ele>307</ele>
        <time>2015-05-27T12:26:11Z</time>
      </trkpt>
      <trkpt lat="45.56272" lon="4.72885">
        <ele>307</ele>
        <time>2015-05-27T12:26:16Z</time>
      </trkpt>
      <trkpt lat="45.56273" lon="4.72886">
        <ele>307</ele>
        <time>2015-05-27T12:26:19Z</time>
      </trkpt>
      <trkpt lat="45.56274" lon="4.72886">
        <ele>307</ele>
        <time>2015-05-27T12:26:24Z</time>
      </trkpt>
      <trkpt lat="45.56279" lon="4.72889">
        <ele>307</ele>
        <time>2015-05-27T12:26:31Z</time>
      </trkpt>
      <trkpt lat="45.5628" lon="4.72889">
        <ele>308</ele>
        <time>2015-05-27T12:26:32Z</time>
      </trkpt>
      <trkpt lat="45.56282" lon="4.72888">
        <ele>311</ele>
        <time>2015-05-27T12:26:37Z</time>
      </trkpt>
      <trkpt lat="45.56283" lon="4.72889">
        <ele>311</ele>
        <time>2015-05-27T12:26:42Z</time>
      </trkpt>
      <trkpt lat="45.56283" lon="4.7289">
        <ele>310</ele>
        <time>2015-05-27T12:26:45Z</time>
      </trkpt>
      <trkpt lat="45.56286" lon="4.72899">
        <ele>309</ele>
        <time>2015-05-27T12:26:51Z</time>
      </trkpt>
      <trkpt lat="45.56291" lon="4.72906">
        <ele>306</ele>
        <time>2015-05-27T12:26:56Z</time>
      </trkpt>
      <trkpt lat="45.56294" lon="4.72907">
        <ele>307</ele>
        <time>2015-05-27T12:26:59Z</time>
      </trkpt>
      <trkpt lat="45.56298" lon="4.7291">
        <ele>312</ele>
        <time>2015-05-27T12:27:06Z</time>
      </trkpt>
      <trkpt lat="45.563" lon="4.72912">
        <ele>314</ele>
        <time>2015-05-27T12:27:08Z</time>
      </trkpt>
      <trkpt lat="45.56305" lon="4.72919">
        <ele>320</ele>
        <time>2015-05-27T12:27:13Z</time>
      </trkpt>
      <trkpt lat="45.5631" lon="4.72923">
        <ele>324</ele>
        <time>2015-05-27T12:27:18Z</time>
      </trkpt>
      <trkpt lat="45.56312" lon="4.72924">
        <ele>325</ele>
        <time>2015-05-27T12:27:23Z</time>
      </trkpt>
      <trkpt lat="45.56316" lon="4.72929">
        <ele>328</ele>
        <time>2015-05-27T12:27:29Z</time>
      </trkpt>
      <trkpt lat="45.56318" lon="4.72931">
        <ele>329</ele>
        <time>2015-05-27T12:27:33Z</time>
      </trkpt>
      <trkpt lat="45.56322" lon="4.72936">
        <ele>330</ele>
        <time>2015-05-27T12:27:39Z</time>
      </trkpt>
      <trkpt lat="45.56325" lon="4.72937">
        <ele>330</ele>
        <time>2015-05-27T12:27:43Z</time>
      </trkpt>
      <trkpt lat="45.56326" lon="4.7294">
        <ele>331</ele>
        <time>2015-05-27T12:27:48Z</time>
      </trkpt>
      <trkpt lat="45.56328" lon="4.72944">
        <ele>329</ele>
        <time>2015-05-27T12:27:54Z</time>
      </trkpt>
      <trkpt lat="45.56328" lon="4.72943">
        <ele>329</ele>
        <time>2015-05-27T12:27:58Z</time>
      </trkpt>
      <trkpt lat="45.56328" lon="4.72944">
        <ele>329</ele>
        <time>2015-05-27T12:28:01Z</time>
      </trkpt>
      <trkpt lat="45.56328" lon="4.72944">
        <ele>329</ele>
        <time>2015-05-27T12:28:04Z</time>
      </trkpt>
      <trkpt lat="45.56328" lon="4.72944">
        <ele>329</ele>
        <time>2015-05-27T12:28:07Z</time>
      </trkpt>
      <trkpt lat="45.56328" lon="4.72944">
        <ele>329</ele>
        <time>2015-05-27T12:28:10Z</time>
      </trkpt>
      <trkpt lat="45.56328" lon="4.72944">
        <ele>329</ele>
        <time>2015-05-27T12:28:13Z</time>
      </trkpt>
      <trkpt lat="45.56328" lon="4.72944">
        <ele>329</ele>
        <time>2015-05-27T12:28:16Z</time>
      </trkpt>
      <trkpt lat="45.56328" lon="4.72944">
        <ele>329</ele>
        <time>2015-05-27T12:28:19Z</time>
      </trkpt>
      <trkpt lat="45.56328" lon="4.72944">
        <ele>329</ele>
        <time>2015-05-27T12:28:22Z</time>
      </trkpt>
      <trkpt lat="45.56328" lon="4.72943">
        <ele>330</ele>
        <time>2015-05-27T12:28:25Z</time>
      </trkpt>
      <trkpt lat="45.56333" lon="4.72949">
        <ele>332</ele>
        <time>2015-05-27T12:28:31Z</time>
      </trkpt>
      <trkpt lat="45.56335" lon="4.72952">
        <ele>332</ele>
        <time>2015-05-27T12:28:33Z</time>
      </trkpt>
      <trkpt lat="45.56341" lon="4.72959">
        <ele>332</ele>
        <time>2015-05-27T12:28:38Z</time>
      </trkpt>
      <trkpt lat="45.56347" lon="4.72968">
        <ele>334</ele>
        <time>2015-05-27T12:28:43Z</time>
      </trkpt>
      <trkpt lat="45.56355" lon="4.72959">
        <ele>335</ele>
        <time>2015-05-27T12:28:48Z</time>
      </trkpt>
      <trkpt lat="45.56385" lon="4.72923">
        <ele>331</ele>
        <time>2015-05-27T12:28:56Z</time>
      </trkpt>
      <trkpt lat="45.56393" lon="4.72911">
        <ele>331</ele>
        <time>2015-05-27T12:28:58Z</time>
      </trkpt>
      <trkpt lat="45.56398" lon="4.72874">
        <ele>330</ele>
        <time>2015-05-27T12:29:04Z</time>
      </trkpt>
      <trkpt lat="45.56395" lon="4.72846">
        <ele>328</ele>
        <time>2015-05-27T12:29:08Z</time>
      </trkpt>
      <trkpt lat="45.56414" lon="4.72812">
        <ele>325</ele>
        <time>2015-05-27T12:29:13Z</time>
      </trkpt>
      <trkpt lat="45.56422" lon="4.72776">
        <ele>326</ele>
        <time>2015-05-27T12:29:19Z</time>
      </trkpt>
      <trkpt lat="45.56425" lon="4.72762">
        <ele>327</ele>
        <time>2015-05-27T12:29:23Z</time>
      </trkpt>
      <trkpt lat="45.56431" lon="4.72747">
        <ele>327</ele>
        <time>2015-05-27T12:29:28Z</time>
      </trkpt>
      <trkpt lat="45.56436" lon="4.72731">
        <ele>328</ele>
        <time>2015-05-27T12:29:33Z</time>
      </trkpt>
      <trkpt lat="45.56441" lon="4.72712">
        <ele>327</ele>
        <time>2015-05-27T12:29:38Z</time>
      </trkpt>
      <trkpt lat="45.56442" lon="4.72686">
        <ele>327</ele>
        <time>2015-05-27T12:29:43Z</time>
      </trkpt>
      <trkpt lat="45.56449" lon="4.72655">
        <ele>327</ele>
        <time>2015-05-27T12:29:48Z</time>
      </trkpt>
      <trkpt lat="45.56465" lon="4.72632">
        <ele>326</ele>
        <time>2015-05-27T12:29:53Z</time>
      </trkpt>
      <trkpt lat="45.56492" lon="4.72602">
        <ele>324</ele>
        <time>2015-05-27T12:29:59Z</time>
      </trkpt>
      <trkpt lat="45.56511" lon="4.72578">
        <ele>323</ele>
        <time>2015-05-27T12:30:03Z</time>
      </trkpt>
      <trkpt lat="45.56524" lon="4.72546">
        <ele>323</ele>
        <time>2015-05-27T12:30:08Z</time>
      </trkpt>
      <trkpt lat="45.56525" lon="4.72516">
        <ele>323</ele>
        <time>2015-05-27T12:30:13Z</time>
      </trkpt>
      <trkpt lat="45.56519" lon="4.72484">
        <ele>324</ele>
        <time>2015-05-27T12:30:19Z</time>
      </trkpt>
      <trkpt lat="45.56514" lon="4.72459">
        <ele>322</ele>
        <time>2015-05-27T12:30:24Z</time>
      </trkpt>
      <trkpt lat="45.56515" lon="4.72425">
        <ele>316</ele>
        <time>2015-05-27T12:30:30Z</time>
      </trkpt>
      <trkpt lat="45.56517" lon="4.72406">
        <ele>313</ele>
        <time>2015-05-27T12:30:33Z</time>
      </trkpt>
      <trkpt lat="45.56521" lon="4.72373">
        <ele>311</ele>
        <time>2015-05-27T12:30:38Z</time>
      </trkpt>
      <trkpt lat="45.56528" lon="4.72342">
        <ele>307</ele>
        <time>2015-05-27T12:30:43Z</time>
      </trkpt>
      <trkpt lat="45.56538" lon="4.72318">
        <ele>303</ele>
        <time>2015-05-27T12:30:48Z</time>
      </trkpt>
      <trkpt lat="45.56556" lon="4.7229">
        <ele>303</ele>
        <time>2015-05-27T12:30:54Z</time>
      </trkpt>
      <trkpt lat="45.56573" lon="4.72275">
        <ele>296</ele>
        <time>2015-05-27T12:30:58Z</time>
      </trkpt>
      <trkpt lat="45.56592" lon="4.72259">
        <ele>294</ele>
        <time>2015-05-27T12:31:03Z</time>
      </trkpt>
      <trkpt lat="45.56622" lon="4.72243">
        <ele>290</ele>
        <time>2015-05-27T12:31:08Z</time>
      </trkpt>
      <trkpt lat="45.56671" lon="4.7223">
        <ele>285</ele>
        <time>2015-05-27T12:31:17Z</time>
      </trkpt>
      <trkpt lat="45.56676" lon="4.72228">
        <ele>285</ele>
        <time>2015-05-27T12:31:20Z</time>
      </trkpt>
      <trkpt lat="45.56687" lon="4.72226">
        <ele>286</ele>
        <time>2015-05-27T12:31:23Z</time>
      </trkpt>
      <trkpt lat="45.5674" lon="4.72225">
        <ele>284</ele>
        <time>2015-05-27T12:31:31Z</time>
      </trkpt>
      <trkpt lat="45.56762" lon="4.7223">
        <ele>287</ele>
        <time>2015-05-27T12:31:36Z</time>
      </trkpt>
      <trkpt lat="45.56771" lon="4.72231">
        <ele>285</ele>
        <time>2015-05-27T12:31:38Z</time>
      </trkpt>
      <trkpt lat="45.56805" lon="4.7223">
        <ele>275</ele>
        <time>2015-05-27T12:31:44Z</time>
      </trkpt>
      <trkpt lat="45.56824" lon="4.7222">
        <ele>275</ele>
        <time>2015-05-27T12:31:48Z</time>
      </trkpt>
      <trkpt lat="45.56861" lon="4.72208">
        <ele>271</ele>
        <time>2015-05-27T12:31:54Z</time>
      </trkpt>
      <trkpt lat="45.56866" lon="4.72202">
        <ele>272</ele>
        <time>2015-05-27T12:31:59Z</time>
      </trkpt>
      <trkpt lat="45.56877" lon="4.72197">
        <ele>265</ele>
        <time>2015-05-27T12:32:03Z</time>
      </trkpt>
      <trkpt lat="45.56888" lon="4.7219">
        <ele>264</ele>
        <time>2015-05-27T12:32:08Z</time>
      </trkpt>
      <trkpt lat="45.56902" lon="4.72187">
        <ele>258</ele>
        <time>2015-05-27T12:32:13Z</time>
      </trkpt>
      <trkpt lat="45.56926" lon="4.72181">
        <ele>257</ele>
        <time>2015-05-27T12:32:20Z</time>
      </trkpt>
      <trkpt lat="45.56941" lon="4.72167">
        <ele>262</ele>
        <time>2015-05-27T12:32:27Z</time>
      </trkpt>
      <trkpt lat="45.56944" lon="4.72163">
        <ele>264</ele>
        <time>2015-05-27T12:32:28Z</time>
      </trkpt>
      <trkpt lat="45.56961" lon="4.72134">
        <ele>260</ele>
        <time>2015-05-27T12:32:33Z</time>
      </trkpt>
      <trkpt lat="45.5698" lon="4.72106">
        <ele>247</ele>
        <time>2015-05-27T12:32:40Z</time>
      </trkpt>
      <trkpt lat="45.5699" lon="4.72096">
        <ele>243</ele>
        <time>2015-05-27T12:32:44Z</time>
      </trkpt>
      <trkpt lat="45.56996" lon="4.72087">
        <ele>240</ele>
        <time>2015-05-27T12:32:48Z</time>
      </trkpt>
      <trkpt lat="45.57001" lon="4.72074">
        <ele>238</ele>
        <time>2015-05-27T12:32:53Z</time>
      </trkpt>
      <trkpt lat="45.57009" lon="4.72058">
        <ele>236</ele>
        <time>2015-05-27T12:32:58Z</time>
      </trkpt>
      <trkpt lat="45.57019" lon="4.72038">
        <ele>232</ele>
        <time>2015-05-27T12:33:04Z</time>
      </trkpt>
      <trkpt lat="45.57029" lon="4.72024">
        <ele>228</ele>
        <time>2015-05-27T12:33:09Z</time>
      </trkpt>
      <trkpt lat="45.57036" lon="4.72012">
        <ele>224</ele>
        <time>2015-05-27T12:33:13Z</time>
      </trkpt>
      <trkpt lat="45.57048" lon="4.71994">
        <ele>220</ele>
        <time>2015-05-27T12:33:18Z</time>
      </trkpt>
      <trkpt lat="45.57061" lon="4.71967">
        <ele>215</ele>
        <time>2015-05-27T12:33:24Z</time>
      </trkpt>
      <trkpt lat="45.57069" lon="4.7195">
        <ele>211</ele>
        <time>2015-05-27T12:33:28Z</time>
      </trkpt>
      <trkpt lat="45.57091" lon="4.71941">
        <ele>210</ele>
        <time>2015-05-27T12:33:34Z</time>
      </trkpt>
      <trkpt lat="45.57102" lon="4.71946">
        <ele>210</ele>
        <time>2015-05-27T12:33:38Z</time>
      </trkpt>
      <trkpt lat="45.57108" lon="4.71948">
        <ele>211</ele>
        <time>2015-05-27T12:33:43Z</time>
      </trkpt>
      <trkpt lat="45.57109" lon="4.71949">
        <ele>210</ele>
        <time>2015-05-27T12:33:48Z</time>
      </trkpt>
      <trkpt lat="45.57108" lon="4.71948">
        <ele>210</ele>
        <time>2015-05-27T12:33:51Z</time>
      </trkpt>
      <trkpt lat="45.57109" lon="4.71948">
        <ele>210</ele>
        <time>2015-05-27T12:33:54Z</time>
      </trkpt>
      <trkpt lat="45.57109" lon="4.71948">
        <ele>209</ele>
        <time>2015-05-27T12:33:57Z</time>
      </trkpt>
      <trkpt lat="45.57109" lon="4.71948">
        <ele>209</ele>
        <time>2015-05-27T12:34:00Z</time>
      </trkpt>
      <trkpt lat="45.57109" lon="4.71947">
        <ele>209</ele>
        <time>2015-05-27T12:34:03Z</time>
      </trkpt>
      <trkpt lat="45.57109" lon="4.71947">
        <ele>209</ele>
        <time>2015-05-27T12:34:06Z</time>
      </trkpt>
      <trkpt lat="45.57109" lon="4.71947">
        <ele>209</ele>
        <time>2015-05-27T12:34:09Z</time>
      </trkpt>
      <trkpt lat="45.57109" lon="4.71946">
        <ele>208</ele>
        <time>2015-05-27T12:34:12Z</time>
      </trkpt>
      <trkpt lat="45.57109" lon="4.71946">
        <ele>208</ele>
        <time>2015-05-27T12:34:15Z</time>
      </trkpt>
      <trkpt lat="45.57109" lon="4.71946">
        <ele>208</ele>
        <time>2015-05-27T12:34:18Z</time>
      </trkpt>
      <trkpt lat="45.57109" lon="4.71946">
        <ele>207</ele>
        <time>2015-05-27T12:34:21Z</time>
      </trkpt>
      <trkpt lat="45.57109" lon="4.71946">
        <ele>207</ele>
        <time>2015-05-27T12:34:24Z</time>
      </trkpt>
      <trkpt lat="45.57109" lon="4.71946">
        <ele>207</ele>
        <time>2015-05-27T12:34:27Z</time>
      </trkpt>
      <trkpt lat="45.57109" lon="4.71946">
        <ele>207</ele>
        <time>2015-05-27T12:34:30Z</time>
      </trkpt>
      <trkpt lat="45.57109" lon="4.71946">
        <ele>208</ele>
        <time>2015-05-27T12:34:33Z</time>
      </trkpt>
      <trkpt lat="45.57109" lon="4.71949">
        <ele>210</ele>
        <time>2015-05-27T12:34:40Z</time>
      </trkpt>
      <trkpt lat="45.5711" lon="4.7195">
        <ele>210</ele>
        <time>2015-05-27T12:34:41Z</time>
      </trkpt>
      <trkpt lat="45.57119" lon="4.71955">
        <ele>206</ele>
        <time>2015-05-27T12:34:46Z</time>
      </trkpt>
      <trkpt lat="45.57127" lon="4.71962">
        <ele>207</ele>
        <time>2015-05-27T12:34:51Z</time>
      </trkpt>
      <trkpt lat="45.57137" lon="4.71968">
        <ele>207</ele>
        <time>2015-05-27T12:34:56Z</time>
      </trkpt>
      <trkpt lat="45.57148" lon="4.71974">
        <ele>206</ele>
        <time>2015-05-27T12:35:01Z</time>
      </trkpt>
      <trkpt lat="45.5716" lon="4.7198">
        <ele>206</ele>
        <time>2015-05-27T12:35:06Z</time>
      </trkpt>
      <trkpt lat="45.57169" lon="4.71988">
        <ele>207</ele>
        <time>2015-05-27T12:35:11Z</time>
      </trkpt>
      <trkpt lat="45.57169" lon="4.72">
        <ele>208</ele>
        <time>2015-05-27T12:35:16Z</time>
      </trkpt>
      <trkpt lat="45.57168" lon="4.72012">
        <ele>209</ele>
        <time>2015-05-27T12:35:21Z</time>
      </trkpt>
      <trkpt lat="45.5717" lon="4.72024">
        <ele>209</ele>
        <time>2015-05-27T12:35:26Z</time>
      </trkpt>
      <trkpt lat="45.57172" lon="4.72038">
        <ele>209</ele>
        <time>2015-05-27T12:35:31Z</time>
      </trkpt>
      <trkpt lat="45.57174" lon="4.72051">
        <ele>210</ele>
        <time>2015-05-27T12:35:36Z</time>
      </trkpt>
      <trkpt lat="45.57175" lon="4.72062">
        <ele>211</ele>
        <time>2015-05-27T12:35:41Z</time>
      </trkpt>
      <trkpt lat="45.57177" lon="4.72074">
        <ele>213</ele>
        <time>2015-05-27T12:35:46Z</time>
      </trkpt>
      <trkpt lat="45.57179" lon="4.72085">
        <ele>214</ele>
        <time>2015-05-27T12:35:51Z</time>
      </trkpt>
      <trkpt lat="45.5718" lon="4.72095">
        <ele>216</ele>
        <time>2015-05-27T12:35:56Z</time>
      </trkpt>
      <trkpt lat="45.57182" lon="4.72107">
        <ele>218</ele>
        <time>2015-05-27T12:36:01Z</time>
      </trkpt>
      <trkpt lat="45.57184" lon="4.72112">
        <ele>224</ele>
        <time>2015-05-27T12:36:06Z</time>
      </trkpt>
      <trkpt lat="45.57185" lon="4.72116">
        <ele>229</ele>
        <time>2015-05-27T12:36:11Z</time>
      </trkpt>
      <trkpt lat="45.57187" lon="4.72126">
        <ele>232</ele>
        <time>2015-05-27T12:36:17Z</time>
      </trkpt>
      <trkpt lat="45.57189" lon="4.72135">
        <ele>230</ele>
        <time>2015-05-27T12:36:21Z</time>
      </trkpt>
      <trkpt lat="45.57188" lon="4.72142">
        <ele>231</ele>
        <time>2015-05-27T12:36:27Z</time>
      </trkpt>
      <trkpt lat="45.57188" lon="4.72149">
        <ele>232</ele>
        <time>2015-05-27T12:36:31Z</time>
      </trkpt>
      <trkpt lat="45.57186" lon="4.72156">
        <ele>237</ele>
        <time>2015-05-27T12:36:36Z</time>
      </trkpt>
      <trkpt lat="45.57186" lon="4.72164">
        <ele>238</ele>
        <time>2015-05-27T12:36:41Z</time>
      </trkpt>
      <trkpt lat="45.57183" lon="4.72179">
        <ele>236</ele>
        <time>2015-05-27T12:36:49Z</time>
      </trkpt>
      <trkpt lat="45.57184" lon="4.72181">
        <ele>238</ele>
        <time>2015-05-27T12:36:51Z</time>
      </trkpt>
      <trkpt lat="45.57184" lon="4.72192">
        <ele>239</ele>
        <time>2015-05-27T12:36:56Z</time>
      </trkpt>
      <trkpt lat="45.57184" lon="4.72201">
        <ele>237</ele>
        <time>2015-05-27T12:37:01Z</time>
      </trkpt>
      <trkpt lat="45.5718" lon="4.72219">
        <ele>238</ele>
        <time>2015-05-27T12:37:09Z</time>
      </trkpt>
      <trkpt lat="45.57178" lon="4.72224">
        <ele>236</ele>
        <time>2015-05-27T12:37:11Z</time>
      </trkpt>
      <trkpt lat="45.57179" lon="4.72233">
        <ele>238</ele>
        <time>2015-05-27T12:37:17Z</time>
      </trkpt>
      <trkpt lat="45.57181" lon="4.72239">
        <ele>240</ele>
        <time>2015-05-27T12:37:21Z</time>
      </trkpt>
      <trkpt lat="45.57184" lon="4.72249">
        <ele>239</ele>
        <time>2015-05-27T12:37:26Z</time>
      </trkpt>
      <trkpt lat="45.57188" lon="4.72267">
        <ele>244</ele>
        <time>2015-05-27T12:37:35Z</time>
      </trkpt>
      <trkpt lat="45.57188" lon="4.7227">
        <ele>243</ele>
        <time>2015-05-27T12:37:36Z</time>
      </trkpt>
      <trkpt lat="45.57189" lon="4.72281">
        <ele>246</ele>
        <time>2015-05-27T12:37:41Z</time>
      </trkpt>
      <trkpt lat="45.57192" lon="4.72291">
        <ele>251</ele>
        <time>2015-05-27T12:37:46Z</time>
      </trkpt>
      <trkpt lat="45.57191" lon="4.72313">
        <ele>246</ele>
        <time>2015-05-27T12:37:54Z</time>
      </trkpt>
      <trkpt lat="45.57192" lon="4.72324">
        <ele>252</ele>
        <time>2015-05-27T12:37:59Z</time>
      </trkpt>
      <trkpt lat="45.57193" lon="4.72333">
        <ele>251</ele>
        <time>2015-05-27T12:38:02Z</time>
      </trkpt>
      <trkpt lat="45.57195" lon="4.72343">
        <ele>254</ele>
        <time>2015-05-27T12:38:06Z</time>
      </trkpt>
      <trkpt lat="45.57196" lon="4.72356">
        <ele>256</ele>
        <time>2015-05-27T12:38:11Z</time>
      </trkpt>
      <trkpt lat="45.57197" lon="4.72374">
        <ele>253</ele>
        <time>2015-05-27T12:38:18Z</time>
      </trkpt>
      <trkpt lat="45.57199" lon="4.72385">
        <ele>249</ele>
        <time>2015-05-27T12:38:23Z</time>
      </trkpt>
      <trkpt lat="45.57206" lon="4.72394">
        <ele>250</ele>
        <time>2015-05-27T12:38:29Z</time>
      </trkpt>
      <trkpt lat="45.57208" lon="4.72397">
        <ele>252</ele>
        <time>2015-05-27T12:38:31Z</time>
      </trkpt>
      <trkpt lat="45.57212" lon="4.72409">
        <ele>250</ele>
        <time>2015-05-27T12:38:37Z</time>
      </trkpt>
      <trkpt lat="45.57219" lon="4.72418">
        <ele>249</ele>
        <time>2015-05-27T12:38:44Z</time>
      </trkpt>
      <trkpt lat="45.57222" lon="4.72421">
        <ele>251</ele>
        <time>2015-05-27T12:38:46Z</time>
      </trkpt>
      <trkpt lat="45.57229" lon="4.72431">
        <ele>252</ele>
        <time>2015-05-27T12:38:51Z</time>
      </trkpt>
      <trkpt lat="45.57235" lon="4.72453">
        <ele>256</ele>
        <time>2015-05-27T12:39:00Z</time>
      </trkpt>
      <trkpt lat="45.57235" lon="4.72456">
        <ele>256</ele>
        <time>2015-05-27T12:39:01Z</time>
      </trkpt>
      <trkpt lat="45.57235" lon="4.72472">
        <ele>253</ele>
        <time>2015-05-27T12:39:06Z</time>
      </trkpt>
      <trkpt lat="45.57231" lon="4.72483">
        <ele>252</ele>
        <time>2015-05-27T12:39:11Z</time>
      </trkpt>
      <trkpt lat="45.57224" lon="4.7249">
        <ele>250</ele>
        <time>2015-05-27T12:39:16Z</time>
      </trkpt>
      <trkpt lat="45.57216" lon="4.72496">
        <ele>248</ele>
        <time>2015-05-27T12:39:21Z</time>
      </trkpt>
      <trkpt lat="45.57208" lon="4.72497">
        <ele>251</ele>
        <time>2015-05-27T12:39:26Z</time>
      </trkpt>
      <trkpt lat="45.57202" lon="4.72495">
        <ele>253</ele>
        <time>2015-05-27T12:39:31Z</time>
      </trkpt>
      <trkpt lat="45.57199" lon="4.72493">
        <ele>251</ele>
        <time>2015-05-27T12:39:36Z</time>
      </trkpt>
      <trkpt lat="45.57192" lon="4.72489">
        <ele>252</ele>
        <time>2015-05-27T12:39:41Z</time>
      </trkpt>
      <trkpt lat="45.57185" lon="4.72481">
        <ele>251</ele>
        <time>2015-05-27T12:39:46Z</time>
      </trkpt>
      <trkpt lat="45.57174" lon="4.72473">
        <ele>247</ele>
        <time>2015-05-27T12:39:51Z</time>
      </trkpt>
      <trkpt lat="45.57167" lon="4.72464">
        <ele>247</ele>
        <time>2015-05-27T12:39:58Z</time>
      </trkpt>
      <trkpt lat="45.57162" lon="4.72459">
        <ele>246</ele>
        <time>2015-05-27T12:40:02Z</time>
      </trkpt>
      <trkpt lat="45.5716" lon="4.72453">
        <ele>252</ele>
        <time>2015-05-27T12:40:07Z</time>
      </trkpt>
      <trkpt lat="45.57154" lon="4.72445">
        <ele>254</ele>
        <time>2015-05-27T12:40:12Z</time>
      </trkpt>
      <trkpt lat="45.5715" lon="4.72438">
        <ele>256</ele>
        <time>2015-05-27T12:40:16Z</time>
      </trkpt>
      <trkpt lat="45.57142" lon="4.72437">
        <ele>253</ele>
        <time>2015-05-27T12:40:21Z</time>
      </trkpt>
      <trkpt lat="45.57134" lon="4.72438">
        <ele>250</ele>
        <time>2015-05-27T12:40:26Z</time>
      </trkpt>
      <trkpt lat="45.57125" lon="4.72442">
        <ele>252</ele>
        <time>2015-05-27T12:40:35Z</time>
      </trkpt>
      <trkpt lat="45.57124" lon="4.72442">
        <ele>252</ele>
        <time>2015-05-27T12:40:36Z</time>
      </trkpt>
      <trkpt lat="45.57121" lon="4.72447">
        <ele>255</ele>
        <time>2015-05-27T12:40:42Z</time>
      </trkpt>
      <trkpt lat="45.57115" lon="4.7245">
        <ele>255</ele>
        <time>2015-05-27T12:40:46Z</time>
      </trkpt>
      <trkpt lat="45.57105" lon="4.7246">
        <ele>261</ele>
        <time>2015-05-27T12:40:51Z</time>
      </trkpt>
      <trkpt lat="45.57089" lon="4.72485">
        <ele>261</ele>
        <time>2015-05-27T12:40:58Z</time>
      </trkpt>
      <trkpt lat="45.57082" lon="4.72495">
        <ele>263</ele>
        <time>2015-05-27T12:41:01Z</time>
      </trkpt>
      <trkpt lat="45.57072" lon="4.7251">
        <ele>263</ele>
        <time>2015-05-27T12:41:06Z</time>
      </trkpt>
      <trkpt lat="45.57058" lon="4.72533">
        <ele>261</ele>
        <time>2015-05-27T12:41:11Z</time>
      </trkpt>
      <trkpt lat="45.57043" lon="4.72555">
        <ele>260</ele>
        <time>2015-05-27T12:41:18Z</time>
      </trkpt>
      <trkpt lat="45.57032" lon="4.72572">
        <ele>261</ele>
        <time>2015-05-27T12:41:23Z</time>
      </trkpt>
      <trkpt lat="45.57025" lon="4.72581">
        <ele>262</ele>
        <time>2015-05-27T12:41:26Z</time>
      </trkpt>
      <trkpt lat="45.57004" lon="4.72614">
        <ele>259</ele>
        <time>2015-05-27T12:41:31Z</time>
      </trkpt>
      <trkpt lat="45.5698" lon="4.72643">
        <ele>256</ele>
        <time>2015-05-27T12:41:36Z</time>
      </trkpt>
      <trkpt lat="45.56944" lon="4.72677">
        <ele>259</ele>
        <time>2015-05-27T12:41:42Z</time>
      </trkpt>
      <trkpt lat="45.56927" lon="4.72698">
        <ele>259</ele>
        <time>2015-05-27T12:41:46Z</time>
      </trkpt>
      <trkpt lat="45.56918" lon="4.72722">
        <ele>258</ele>
        <time>2015-05-27T12:41:51Z</time>
      </trkpt>
      <trkpt lat="45.56911" lon="4.72731">
        <ele>264</ele>
        <time>2015-05-27T12:41:56Z</time>
      </trkpt>
      <trkpt lat="45.56908" lon="4.72735">
        <ele>264</ele>
        <time>2015-05-27T12:42:03Z</time>
      </trkpt>
      <trkpt lat="45.56908" lon="4.72735">
        <ele>265</ele>
        <time>2015-05-27T12:42:06Z</time>
      </trkpt>
      <trkpt lat="45.56908" lon="4.72735">
        <ele>266</ele>
        <time>2015-05-27T12:42:09Z</time>
      </trkpt>
      <trkpt lat="45.56908" lon="4.72735">
        <ele>266</ele>
        <time>2015-05-27T12:42:12Z</time>
      </trkpt>
      <trkpt lat="45.56908" lon="4.72735">
        <ele>266</ele>
        <time>2015-05-27T12:42:15Z</time>
      </trkpt>
      <trkpt lat="45.56908" lon="4.72735">
        <ele>266</ele>
        <time>2015-05-27T12:42:18Z</time>
      </trkpt>
      <trkpt lat="45.56908" lon="4.72735">
        <ele>266</ele>
        <time>2015-05-27T12:42:21Z</time>
      </trkpt>
      <trkpt lat="45.56908" lon="4.72738">
        <ele>265</ele>
        <time>2015-05-27T12:42:24Z</time>
      </trkpt>
      <trkpt lat="45.56907" lon="4.7274">
        <ele>267</ele>
        <time>2015-05-27T12:42:29Z</time>
      </trkpt>
      <trkpt lat="45.56913" lon="4.72743">
        <ele>269</ele>
        <time>2015-05-27T12:42:35Z</time>
      </trkpt>
      <trkpt lat="45.56912" lon="4.72743">
        <ele>273</ele>
        <time>2015-05-27T12:42:40Z</time>
      </trkpt>
      <trkpt lat="45.5692" lon="4.72742">
        <ele>283</ele>
        <time>2015-05-27T12:42:46Z</time>
      </trkpt>
      <trkpt lat="45.56921" lon="4.72741">
        <ele>284</ele>
        <time>2015-05-27T12:42:47Z</time>
      </trkpt>
      <trkpt lat="45.56929" lon="4.72743">
        <ele>284</ele>
        <time>2015-05-27T12:42:52Z</time>
      </trkpt>
      <trkpt lat="45.56933" lon="4.72741">
        <ele>284</ele>
        <time>2015-05-27T12:42:57Z</time>
      </trkpt>
      <trkpt lat="45.56938" lon="4.72735">
        <ele>287</ele>
        <time>2015-05-27T12:43:02Z</time>
      </trkpt>
      <trkpt lat="45.56955" lon="4.72732">
        <ele>283</ele>
        <time>2015-05-27T12:43:11Z</time>
      </trkpt>
      <trkpt lat="45.56956" lon="4.72731">
        <ele>284</ele>
        <time>2015-05-27T12:43:12Z</time>
      </trkpt>
      <trkpt lat="45.56962" lon="4.72732">
        <ele>288</ele>
        <time>2015-05-27T12:43:17Z</time>
      </trkpt>
      <trkpt lat="45.56978" lon="4.72727">
        <ele>279</ele>
        <time>2015-05-27T12:43:26Z</time>
      </trkpt>
      <trkpt lat="45.56978" lon="4.72726">
        <ele>281</ele>
        <time>2015-05-27T12:43:27Z</time>
      </trkpt>
      <trkpt lat="45.56988" lon="4.72725">
        <ele>273</ele>
        <time>2015-05-27T12:43:32Z</time>
      </trkpt>
      <trkpt lat="45.56995" lon="4.72723">
        <ele>274</ele>
        <time>2015-05-27T12:43:37Z</time>
      </trkpt>
      <trkpt lat="45.57011" lon="4.72724">
        <ele>272</ele>
        <time>2015-05-27T12:43:46Z</time>
      </trkpt>
      <trkpt lat="45.57019" lon="4.72727">
        <ele>270</ele>
        <time>2015-05-27T12:43:51Z</time>
      </trkpt>
      <trkpt lat="45.57021" lon="4.72727">
        <ele>270</ele>
        <time>2015-05-27T12:43:52Z</time>
      </trkpt>
      <trkpt lat="45.57028" lon="4.72729">
        <ele>276</ele>
        <time>2015-05-27T12:43:57Z</time>
      </trkpt>
      <trkpt lat="45.57033" lon="4.72726">
        <ele>279</ele>
        <time>2015-05-27T12:44:02Z</time>
      </trkpt>
      <trkpt lat="45.57042" lon="4.72716">
        <ele>282</ele>
        <time>2015-05-27T12:44:07Z</time>
      </trkpt>
      <trkpt lat="45.57057" lon="4.72713">
        <ele>277</ele>
        <time>2015-05-27T12:44:12Z</time>
      </trkpt>
      <trkpt lat="45.57067" lon="4.72708">
        <ele>277</ele>
        <time>2015-05-27T12:44:17Z</time>
      </trkpt>
      <trkpt lat="45.57082" lon="4.72703">
        <ele>274</ele>
        <time>2015-05-27T12:44:22Z</time>
      </trkpt>
      <trkpt lat="45.571" lon="4.72704">
        <ele>271</ele>
        <time>2015-05-27T12:44:29Z</time>
      </trkpt>
      <trkpt lat="45.57105" lon="4.72705">
        <ele>273</ele>
        <time>2015-05-27T12:44:32Z</time>
      </trkpt>
      <trkpt lat="45.57116" lon="4.72708">
        <ele>276</ele>
        <time>2015-05-27T12:44:39Z</time>
      </trkpt>
      <trkpt lat="45.57119" lon="4.72709">
        <ele>277</ele>
        <time>2015-05-27T12:44:42Z</time>
      </trkpt>
      <trkpt lat="45.57126" lon="4.7271">
        <ele>281</ele>
        <time>2015-05-27T12:44:47Z</time>
      </trkpt>
      <trkpt lat="45.5713" lon="4.72711">
        <ele>280</ele>
        <time>2015-05-27T12:44:52Z</time>
      </trkpt>
      <trkpt lat="45.57138" lon="4.72715">
        <ele>282</ele>
        <time>2015-05-27T12:44:59Z</time>
      </trkpt>
      <trkpt lat="45.57142" lon="4.72718">
        <ele>283</ele>
        <time>2015-05-27T12:45:02Z</time>
      </trkpt>
      <trkpt lat="45.57149" lon="4.72722">
        <ele>282</ele>
        <time>2015-05-27T12:45:07Z</time>
      </trkpt>
      <trkpt lat="45.57156" lon="4.72729">
        <ele>282</ele>
        <time>2015-05-27T12:45:12Z</time>
      </trkpt>
      <trkpt lat="45.57166" lon="4.72734">
        <ele>280</ele>
        <time>2015-05-27T12:45:18Z</time>
      </trkpt>
      <trkpt lat="45.5717" lon="4.72739">
        <ele>279</ele>
        <time>2015-05-27T12:45:22Z</time>
      </trkpt>
      <trkpt lat="45.57175" lon="4.72743">
        <ele>280</ele>
        <time>2015-05-27T12:45:27Z</time>
      </trkpt>
      <trkpt lat="45.57178" lon="4.7275">
        <ele>279</ele>
        <time>2015-05-27T12:45:32Z</time>
      </trkpt>
      <trkpt lat="45.57174" lon="4.72756">
        <ele>275</ele>
        <time>2015-05-27T12:45:37Z</time>
      </trkpt>
      <trkpt lat="45.57169" lon="4.72761">
        <ele>274</ele>
        <time>2015-05-27T12:45:42Z</time>
      </trkpt>
      <trkpt lat="45.57165" lon="4.72764">
        <ele>276</ele>
        <time>2015-05-27T12:45:47Z</time>
      </trkpt>
      <trkpt lat="45.57162" lon="4.72767">
        <ele>276</ele>
        <time>2015-05-27T12:45:52Z</time>
      </trkpt>
      <trkpt lat="45.57157" lon="4.72771">
        <ele>276</ele>
        <time>2015-05-27T12:45:57Z</time>
      </trkpt>
      <trkpt lat="45.57151" lon="4.72775">
        <ele>275</ele>
        <time>2015-05-27T12:46:02Z</time>
      </trkpt>
      <trkpt lat="45.57143" lon="4.72779">
        <ele>274</ele>
        <time>2015-05-27T12:46:07Z</time>
      </trkpt>
      <trkpt lat="45.57135" lon="4.72784">
        <ele>272</ele>
        <time>2015-05-27T12:46:12Z</time>
      </trkpt>
      <trkpt lat="45.57126" lon="4.7279">
        <ele>272</ele>
        <time>2015-05-27T12:46:17Z</time>
      </trkpt>
      <trkpt lat="45.57119" lon="4.72794">
        <ele>269</ele>
        <time>2015-05-27T12:46:22Z</time>
      </trkpt>
      <trkpt lat="45.57112" lon="4.72798">
        <ele>269</ele>
        <time>2015-05-27T12:46:27Z</time>
      </trkpt>
      <trkpt lat="45.57104" lon="4.72804">
        <ele>267</ele>
        <time>2015-05-27T12:46:32Z</time>
      </trkpt>
      <trkpt lat="45.57097" lon="4.7281">
        <ele>268</ele>
        <time>2015-05-27T12:46:37Z</time>
      </trkpt>
      <trkpt lat="45.57093" lon="4.72816">
        <ele>272</ele>
        <time>2015-05-27T12:46:42Z</time>
      </trkpt>
      <trkpt lat="45.57092" lon="4.72821">
        <ele>277</ele>
        <time>2015-05-27T12:46:47Z</time>
      </trkpt>
      <trkpt lat="45.57086" lon="4.72829">
        <ele>279</ele>
        <time>2015-05-27T12:46:52Z</time>
      </trkpt>
      <trkpt lat="45.57085" lon="4.72836">
        <ele>284</ele>
        <time>2015-05-27T12:46:57Z</time>
      </trkpt>
      <trkpt lat="45.57081" lon="4.72843">
        <ele>285</ele>
        <time>2015-05-27T12:47:02Z</time>
      </trkpt>
      <trkpt lat="45.57076" lon="4.72849">
        <ele>287</ele>
        <time>2015-05-27T12:47:07Z</time>
      </trkpt>
      <trkpt lat="45.57071" lon="4.72856">
        <ele>287</ele>
        <time>2015-05-27T12:47:12Z</time>
      </trkpt>
      <trkpt lat="45.57066" lon="4.72863">
        <ele>289</ele>
        <time>2015-05-27T12:47:17Z</time>
      </trkpt>
      <trkpt lat="45.57062" lon="4.7287">
        <ele>289</ele>
        <time>2015-05-27T12:47:22Z</time>
      </trkpt>
      <trkpt lat="45.57057" lon="4.72878">
        <ele>291</ele>
        <time>2015-05-27T12:47:27Z</time>
      </trkpt>
      <trkpt lat="45.57052" lon="4.72886">
        <ele>291</ele>
        <time>2015-05-27T12:47:32Z</time>
      </trkpt>
      <trkpt lat="45.57048" lon="4.72893">
        <ele>291</ele>
        <time>2015-05-27T12:47:37Z</time>
      </trkpt>
      <trkpt lat="45.57043" lon="4.72901">
        <ele>292</ele>
        <time>2015-05-27T12:47:42Z</time>
      </trkpt>
      <trkpt lat="45.57038" lon="4.72905">
        <ele>292</ele>
        <time>2015-05-27T12:47:47Z</time>
      </trkpt>
      <trkpt lat="45.57033" lon="4.72912">
        <ele>292</ele>
        <time>2015-05-27T12:47:52Z</time>
      </trkpt>
      <trkpt lat="45.57028" lon="4.72918">
        <ele>292</ele>
        <time>2015-05-27T12:47:57Z</time>
      </trkpt>
      <trkpt lat="45.57023" lon="4.72924">
        <ele>293</ele>
        <time>2015-05-27T12:48:02Z</time>
      </trkpt>
      <trkpt lat="45.57018" lon="4.7293">
        <ele>294</ele>
        <time>2015-05-27T12:48:07Z</time>
      </trkpt>
      <trkpt lat="45.57012" lon="4.72937">
        <ele>295</ele>
        <time>2015-05-27T12:48:12Z</time>
      </trkpt>
      <trkpt lat="45.57006" lon="4.72943">
        <ele>296</ele>
        <time>2015-05-27T12:48:17Z</time>
      </trkpt>
      <trkpt lat="45.57001" lon="4.72949">
        <ele>296</ele>
        <time>2015-05-27T12:48:22Z</time>
      </trkpt>
      <trkpt lat="45.56996" lon="4.72955">
        <ele>297</ele>
        <time>2015-05-27T12:48:27Z</time>
      </trkpt>
      <trkpt lat="45.56991" lon="4.72961">
        <ele>298</ele>
        <time>2015-05-27T12:48:32Z</time>
      </trkpt>
      <trkpt lat="45.56986" lon="4.72967">
        <ele>299</ele>
        <time>2015-05-27T12:48:37Z</time>
      </trkpt>
      <trkpt lat="45.56983" lon="4.72974">
        <ele>300</ele>
        <time>2015-05-27T12:48:42Z</time>
      </trkpt>
      <trkpt lat="45.56981" lon="4.72982">
        <ele>300</ele>
        <time>2015-05-27T12:48:47Z</time>
      </trkpt>
      <trkpt lat="45.56983" lon="4.72988">
        <ele>300</ele>
        <time>2015-05-27T12:48:52Z</time>
      </trkpt>
      <trkpt lat="45.56985" lon="4.72991">
        <ele>301</ele>
        <time>2015-05-27T12:48:57Z</time>
      </trkpt>
      <trkpt lat="45.56985" lon="4.72989">
        <ele>301</ele>
        <time>2015-05-27T12:49:02Z</time>
      </trkpt>
      <trkpt lat="45.56984" lon="4.72991">
        <ele>301</ele>
        <time>2015-05-27T12:49:05Z</time>
      </trkpt>
      <trkpt lat="45.56983" lon="4.72993">
        <ele>301</ele>
        <time>2015-05-27T12:49:10Z</time>
      </trkpt>
      <trkpt lat="45.56982" lon="4.72994">
        <ele>301</ele>
        <time>2015-05-27T12:49:15Z</time>
      </trkpt>
      <trkpt lat="45.56982" lon="4.72994">
        <ele>301</ele>
        <time>2015-05-27T12:49:18Z</time>
      </trkpt>
      <trkpt lat="45.56982" lon="4.72994">
        <ele>301</ele>
        <time>2015-05-27T12:49:21Z</time>
      </trkpt>
      <trkpt lat="45.56982" lon="4.72994">
        <ele>301</ele>
        <time>2015-05-27T12:49:24Z</time>
      </trkpt>
      <trkpt lat="45.56982" lon="4.72993">
        <ele>301</ele>
        <time>2015-05-27T12:49:27Z</time>
      </trkpt>
      <trkpt lat="45.56982" lon="4.72994">
        <ele>301</ele>
        <time>2015-05-27T12:49:30Z</time>
      </trkpt>
      <trkpt lat="45.56982" lon="4.72994">
        <ele>301</ele>
        <time>2015-05-27T12:49:33Z</time>
      </trkpt>
      <trkpt lat="45.56982" lon="4.72994">
        <ele>301</ele>
        <time>2015-05-27T12:49:38Z</time>
      </trkpt>
      <trkpt lat="45.56982" lon="4.72994">
        <ele>301</ele>
        <time>2015-05-27T12:49:39Z</time>
      </trkpt>
    </trkseg>
  </trk>
</gpx>